Regional Weather Roundup
Issued by NWS Upton, NY

Current Version | Previous Version | Graphics & Text | Print | Product List | Glossary On
Versions: 1 2 3 4 5 6 7 8 9 10 11 12 13 14 15 16 17 18 19 20 21 22 23 24 25 26 27 28 29 30 31 32 33 34 35 36 37 38 39 40 41 42 43 44 45 46 47 48 49 50
000
ASUS41 KOKX 100705
RWROKX

REGIONAL WEATHER ROUNDUP
NATIONAL WEATHER SERVICE NEW YORK NY
300 AM EDT THU JUL 10 2014

NOTE: "FAIR" INDICATES FEW OR NO CLOUDS BELOW 12,000 FEET WITH NO
SIGNIFICANT WEATHER AND/OR OBSTRUCTIONS TO VISIBILITY.

NYZ071-072-176-178-NJZ106-104-100800-
NEW YORK CITY METRO AREA


CITY           SKY/WX    TMP DP  RH WIND       PRES   REMARKS
CENTRAL PARK   MOCLDY    75  60  59 CALM      30.01R
LAGUARDIA APRT MOCLDY    75  60  59 N5        29.97S
KENNEDY INTL   CLOUDY    73  68  84 NE5       29.98S
NEWARK/LIBERTY CLOUDY    74  62  66 N8        29.98R
BRNX BOT. GARD   N/A     72  61  68 N5        29.98F
TETERBORO      MOCLDY    74  61  63 N3        29.98R
$$

NYZ177-179-078>081-100800-
LONG ISLAND NEW YORK

CITY           SKY/WX    TMP DP  RH WIND       PRES   REMARKS
FARMINGDALE    MOCLDY    72  68  87 N5        29.98S
ISLIP          MOCLDY    71  68  90 CALM      29.96
SHIRLEY        MOCLDY    70  68  93 NW5       29.98S
WESTHAMPTON    CLOUDY    70  67  90 NW5       29.98F
MONTAUK POINT    N/A     72  70  93 W6        29.96F
$$

NYZ052-065-067-100800-
HUDSON VALLEY

CITY           SKY/WX    TMP DP  RH WIND       PRES   REMARKS
WHITE PLAINS   MOCLDY    68  64  87 NW5       29.99R
NEWBURGH       MOCLDY    66  64  94 CALM      30.03R
MONTGOMERY     MOCLDY    64  62  93 CALM      30.00R
POUGHKEEPSIE   MOCLDY    68  64  87 N5        29.99R
ALBANY         PTCLDY    60  57  89 SW3       30.02R
$$

NJZ001-105-106-008-010-013-015-019>022-104-100800-
NEW JERSEY

CITY           SKY/WX    TMP DP  RH WIND       PRES   REMARKS
NEWARK/LIBERTY CLOUDY    74  62  66 N8        29.98R
TETERBORO      MOCLDY    74  61  63 N3        29.98R
CALDWELL       MOCLDY    68  66  93 CALM      30.00R
MORRISTOWN     MOCLDY    68  64  88 CALM      30.00R
SOMERVILLE     MOCLDY    67  64  90 CALM      29.98R
LINDEN         FAIR      75  63  65 CALM      30.00R
SUSSEX         FOG       67  64  90 CALM      30.01R VSB 1/4
ANDOVER          N/A     65  64  97 CALM      30.02R
TRENTON        CLOUDY    73  64  73 N3        29.98R
MILLVILLE      CLOUDY    73  71  93 CALM      29.98R
ATLANTIC CITY  CLOUDY    72  70  93 W8        29.98R
WRIGHTSTOWN    CLOUDY    73  72  94 W3        29.96R
TOMS RIVER     CLOUDY    73  72  94 W3        29.99R
BELMAR         CLOUDY    73  68  83 CALM      29.99R
$$

PAZ047>061-062-071-100800-
EASTERN PENNSYLVANIA

CITY           SKY/WX    TMP DP  RH WIND       PRES   REMARKS
PHILADELPHIA   CLOUDY    76  68  76 SW7       29.99R
ALLENTOWN      PTCLDY    65  63  93 NW3       30.00S
SCRANTON       PTCLDY    62  59  90 CALM      30.03R
$$

CTZ002-004>006-009-010-012-RIZ004-006-007-MAZ004-011-015-100800-
SOUTHERN NEW ENGLAND
 IN CT

CITY           SKY/WX    TMP DP  RH WIND       PRES   REMARKS
BRADLEY INTL   MOCLDY    65  62  90 NW5       29.99R
HARTFORD       MOCLDY    68  62  81 N6        29.98R
DANBURY        PTCLDY    65  62  90 CALM      30.01S
WTRBRY/OXFORD  PTCLDY    64  59  82 N5        30.02S
BRIDGEPORT     MOCLDY    73  66  78 NW5       29.99R
MERIDEN        MOCLDY    69  65  86 N3        29.99R
NEW HAVEN      CLOUDY    73  67  81 NW3       29.98R
CHESTER        PTSUNNY   70  68  94 CALM      30.00R
GROTON         LGT RAIN  70  69  97 CALM      29.96F
WILLIMANTIC    CLOUDY    69  64  84 CALM      29.99R

 IN RI

CITY           SKY/WX    TMP DP  RH WIND       PRES   REMARKS
PROVIDENCE     CLOUDY    72  69  90 S13       30.00R
BLOCK ISLAND   CLOUDY    70  68  94 W8        29.96F
WESTERLY       CLOUDY    71  68  90 CALM      29.98R FOG

 IN MA

CITY           SKY/WX    TMP DP  RH WIND       PRES   REMARKS
BOSTON         CLOUDY    74  60  61 W8        29.95R
WORCESTER      MOCLDY    63  60  90 W7        30.00R
WESTFIELD      CLOUDY    67  62  84 N3        30.00R
PROVINCETOWN   CLOUDY    68  66  94 S15       29.98R
NANTUCKET      LGT RAIN  67  65  93 W16G23    29.97F
$$

ANZ330-335-338-340-345-350-353-355-100800-
COASTAL MARINE OBSERVATIONS


STATION/POSITION TIME  SKY/WX   TEMP    WIND        PRES    VSBY  WAVE
                                AIR SEA DIR/SP/G                  HT/PER
                 (UTC)          (F)     (DEG/KT/KT) (MB)    (MI)  (FT/S)
NY HARB ENTRANCE NOT AVBL
4S FIRE IS       0600               66                N/A           4/ 8
23SW MTP         0700            67 65              1014.4          4/ 8
HUDSON CANYON    0700            71 70  210/ 14/ 16 1015.7          4/ 7
EXECUTION ROCKS  0700            71 67   CALM  /  2   N/A
WESTERN LI SOUND 0700            71      10/  2/  4   N/A           0
CENTRAL LI SOUND 0700            71 70  230/  6/  8   N/A           1
EASTERN LI SOUND 0600            69 66  270/  4/  6   N/A
ROBBINS REEF     0700            75     340/  5/  7   N/A
$$


>>>>>>>>>>>>>>>>>>>>>>>>>>>> KEY <<<<<<<<<<<<<<<<<<<<<<<<<<<
>                                                          <
>     SKY/WX - SKY CONDITION/PRESENT WEATHER               <
>     TMP    - TEMPERATURE IN FAHRENHEIT                   <
>     DP     - DEWPOINT IN FAHRENHEIT                      <
>     RH     - RELATIVE HUMIDITY IN PERCENT                <
>     WIND   - DIRECTION AND SPEED IN MPH                  <
>     PRES   - MEAN SEA LEVEL PRESSURE IN INCHES OF HG     <
>     WCI    - WIND CHILL INDEX                            <
>     VSB    - VISIBILITY IN MILES                         <
>     HX     - HEAT INDEX                                  <
>     TC     - TEMPERATURE IN CELSIUS                      <
>     VRB    - VARIABLE WIND DIRECTION                     <
>                                                          <
>>>>>>>>>>>>>>>>>>>>>>>>>>>> KEY <<<<<<<<<<<<<<<<<<<<<<<<<<<




USA.gov is the U.S. government's official web portal to all federal, state and local government web resources and services.